Location: Albany
(42.6526°N, 73.7562°W)
Time: 18:12:16
(UTC+00:00)

Cosmos 1633 Rocket - Pass Details

Date: 19 November 2019
Orbit: 608 x 623 km, 82.5° (Epoch: 07 December)

Event Time Altitude Azimuth Distance (km) Brightness Sun altitude
Rises 22:06:01 0° 359° (N) 2,903 6.3 -7.1°
Reaches altitude 10° 22:08:24 10° 8° (N) 1,995 5.4 -7.5°
Maximum altitude 22:12:30 37° 76° (ENE) 970 3.6 -8.2°
Drops below altitude 10° 22:16:36 10° 145° (SE) 1,986 5.5 -8.9°
Sets 22:18:57 0° 153° (SSE) 2,888 6.4 -9.3°
